Weather History for Marianna, FL

Change the Weather History Date:

Friday, January 18, 2013

  Actual Average Record
Temperature  
Mean Temperature 48 °F 50 °F  
Max Temperature 60 °F 61 °F 77 °F (2001)
Min Temperature 36 °F 39 °F 21 °F (2003)
Degree Days  
Heating Degree Days 17    
Month to date heating degree days 126  
Since 1 July heating degree days 617  
Cooling Degree Days 0    
Month to date cooling degree days 46  
Year to date cooling degree days 46  
Moisture  
Dew Point 33 °F    
Average Humidity 62    
Maximum Humidity 92    
Minimum Humidity 31    
Precipitation  
Precipitation 0.00 in 0.14 in 1.48 in (1999)
Month to date precipitation 0.51 2.71  
Year to date precipitation 0.51 2.71  
Sea Level Pressure  
Sea Level Pressure 30.39 in    
Wind  
Wind Speed 6 mph (NNE)    
Max Wind Speed 15 mph    
Max Gust Speed 21 mph    
Visibility 10 miles    
Events      
T = Trace of Precipitation, MM = Missing Value Source: NWS Daily Summary

Daily Weather History Graph

Daily Weather History Graph

Search for Another Location

Airport:

Trip Planner

Search our weather history database for the weather conditions in past years. The results will help you decide how hot, cold, wet, or windy it might be!

Date:

Astronomy

Jan. 18, 2013 Rise Set
Actual Time 6:38 AM CST 5:04 PM CST
Civil Twilight 6:12 AM CST 5:30 PM CST
Nautical Twilight 5:42 AM CST 5:59 PM CST
Astronomical Twilight 5:14 AM CST 6:28 PM CST
Moon 10:49 AM CST (1/18) No Moon Set
Length of Visible Light 11h 17m
Length of Day
10h 26m
Waxing Crescent, 47% of the Moon is Illuminated
Jan 18
Waxing Crescent
Jan 18
First Quarter
Jan 26
Full
Feb 3
Last Quarter
Feb 10
New

Hourly Weather History & Observations

Time (CST) Temp. Windchill Dew Point Humidity Pressure Visibility Wind Dir Wind Speed Gust Speed Precip Events Conditions
12:06 AM 42.8 °F 37.0 °F 33.8 °F 70% 30.27 in 10.0 mi North 10.4 mph - N/A   Scattered Clouds
12:53 AM 41.0 °F 35.8 °F 34.0 °F 76% 30.29 in 10.0 mi North 8.1 mph - N/A   Clear
1:53 AM 41.0 °F 38.0 °F 34.0 °F 76% 30.31 in 10.0 mi North 4.6 mph - N/A   Overcast
2:24 AM 39.2 °F 35.0 °F 33.8 °F 81% 30.31 in 10.0 mi North 5.8 mph - N/A   Scattered Clouds
2:53 AM 39.9 °F 35.1 °F 34.0 °F 79% 30.31 in 10.0 mi North 6.9 mph - N/A   Clear
3:53 AM 39.0 °F 33.4 °F 34.0 °F 82% 30.32 in 10.0 mi North 8.1 mph - N/A   Clear
4:53 AM 37.9 °F 33.5 °F 33.1 °F 83% 30.34 in 10.0 mi North 5.8 mph - N/A   Clear
5:53 AM 37.0 °F 32.4 °F 33.1 °F 86% 30.37 in 10.0 mi North 5.8 mph - N/A   Clear
6:53 AM 36.0 °F 32.1 °F 33.1 °F 89% 30.40 in 10.0 mi North 4.6 mph - N/A   Clear
7:53 AM 42.1 °F 37.1 °F 34.0 °F 73% 30.43 in 10.0 mi NNE 8.1 mph - N/A   Clear
8:53 AM 46.0 °F 41.4 °F 35.1 °F 66% 30.46 in 10.0 mi NE 9.2 mph - N/A   Clear
9:53 AM 50.0 °F - 36.0 °F 59% 30.47 in 10.0 mi NNE 12.7 mph - N/A   Clear
10:53 AM 53.1 °F - 34.0 °F 48% 30.46 in 10.0 mi NE 13.8 mph 20.7 mph N/A   Clear
11:53 AM 55.0 °F - 33.1 °F 43% 30.43 in 10.0 mi NE 9.2 mph 17.3 mph N/A   Clear
12:53 PM 57.0 °F - 30.9 °F 37% 30.41 in 10.0 mi ENE 10.4 mph 16.1 mph N/A   Clear
1:53 PM 57.9 °F - 30.0 °F 35% 30.40 in 10.0 mi NNE 6.9 mph - N/A   Clear
2:53 PM 59.0 °F - 28.9 °F 32% 30.39 in 10.0 mi NE 8.1 mph - N/A   Clear
3:53 PM 57.9 °F - 30.0 °F 35% 30.39 in 10.0 mi NE 10.4 mph - N/A   Clear
4:53 PM 54.0 °F - 30.9 °F 41% 30.41 in 10.0 mi NE 4.6 mph - N/A   Clear
5:53 PM 51.1 °F - 32.0 °F 48% 30.42 in 10.0 mi Calm Calm - N/A   Clear
6:53 PM 46.9 °F - 34.0 °F 61% 30.43 in 10.0 mi ENE 3.5 mph - N/A   Clear
7:53 PM 46.0 °F 44.8 °F 32.0 °F 58% 30.43 in 10.0 mi NE 3.5 mph - N/A   Clear
8:53 PM 45.0 °F 43.5 °F 32.0 °F 60% 30.43 in 10.0 mi ENE 3.5 mph - N/A   Clear
9:53 PM 44.1 °F 40.8 °F 32.0 °F 63% 30.41 in 10.0 mi ENE 5.8 mph - N/A   Clear
10:53 PM 44.1 °F - 30.9 °F 60% 30.40 in 10.0 mi Calm Calm - N/A   Clear
11:53 PM 39.0 °F - 32.0 °F 76% 30.40 in 10.0 mi Calm Calm - N/A   Scattered Clouds